Location: An Tulaigh
(53.1928°N, 8.1647°W)
Time: 23:38:30
(UTC+00:00)

ALOS 2 - Pass Details

Date: 15 May 2026
Orbit: 630 x 632 km, 97.9° (Epoch: 11 June)

Event Time Altitude Azimuth Distance (km) Brightness Sun altitude
Exits shadow 22:53:53 17° 117° (ESE) 1,593 4.2 -14.9°
Maximum altitude 22:56:33 32° 64° (ENE) 1,090 3.8 -15.0°
Drops below altitude 10° 23:00:28 10° 1° (N) 2,028 6.3 -15.3°
Sets 23:02:50 0° 352° (N) 2,940 7.7 -15.4°
